• In Schweiz
  • Länderverzeichnis
  • Für 7 Tage
  • Wassertemperatur
  • Satellitenkarten
  • Wetterkarte
  • Widgets
  • user-avatar
    Anmelden

    Stündliche Wetter Chinandega

    Heute, 19 Juli, Donnerstag

    Zeit Temperatur Niederschläge Wind Luftdruck Luftfeuchtigkeit
    00:00 +28°C° 0 mm 4 m/S 756 mmHg 72%
    01:00 +27°C° 0 mm 4 m/S 755 mmHg 74%
    02:00 +27°C° 0 mm 3 m/S 755 mmHg 75%
    03:00 +27°C° 0 mm 3 m/S 755 mmHg 77%
    04:00 +26°C° 0 mm 3 m/S 755 mmHg 77%
    05:00 +26°C° 0 mm 3 m/S 755 mmHg 77%
    06:00 +26°C° 0 mm 3 m/S 755 mmHg 77%
    07:00 +29°C° 0 mm 3 m/S 755 mmHg 68%
    08:00 +32°C° 0 mm 4 m/S 756 mmHg 58%
    09:00 +34°C° 0 mm 5 m/S 756 mmHg 49%
    10:00 +35°C° 0 mm 5 m/S 755 mmHg 44%
    11:00 +37°C° 0 mm 5 m/S 755 mmHg 39%
    12:00 +39°C° 0 mm 5 m/S 755 mmHg 35%
    13:00 +40°C° 0 mm 5 m/S 754 mmHg 34%
    14:00 +40°C° 0 mm 5 m/S 754 mmHg 34%
    15:00 +40°C° 0 mm 5 m/S 753 mmHg 33%
    16:00 +39°C° 0 mm 5 m/S 753 mmHg 37%
    17:00 +36°C° 0 mm 5 m/S 753 mmHg 40%
    18:00 +35°C° 0 mm 4 m/S 753 mmHg 44%
    19:00 +33°C° 0 mm 4 m/S 754 mmHg 49%
    20:00 +32°C° 0 mm 4 m/S 754 mmHg 54%
    21:00 +30°C° 0 mm 4 m/S 755 mmHg 59%
    22:00 +29°C° 0 mm 4 m/S 755 mmHg 62%
    23:00 +28°C° 0 mm 4 m/S 755 mmHg 65%

    Morgen, 20 Juli, Freitag

    Zeit Temperatur Niederschläge Wind Luftdruck Luftfeuchtigkeit
    00:00 +28°C° 0 mm 4 m/S 755 mmHg 69%
    01:00 +27°C° 0 mm 4 m/S 755 mmHg 72%
    02:00 +26°C° 0 mm 4 m/S 755 mmHg 74%
    03:00 +26°C° 0 mm 3 m/S 755 mmHg 77%
    04:00 +26°C° 0 mm 3 m/S 755 mmHg 78%
    05:00 +25°C° 0 mm 3 m/S 755 mmHg 78%
    06:00 +25°C° 0 mm 3 m/S 755 mmHg 79%
    07:00 +28°C° 0 mm 3 m/S 755 mmHg 68%
    08:00 +30°C° 0 mm 4 m/S 755 mmHg 57%
    09:00 +34°C° 0 mm 4 m/S 756 mmHg 46%
    10:00 +36°C° 0 mm 4 m/S 755 mmHg 39%
    11:00 +38°C° 0 mm 4 m/S 755 mmHg 33%
    12:00 +41°C° 0 mm 4 m/S 755 mmHg 27%
    13:00 +41°C° 0 mm 5 m/S 754 mmHg 27%
    14:00 +41°C° 0 mm 5 m/S 753 mmHg 27%
    15:00 +41°C° 0 mm 5 m/S 753 mmHg 27%
    16:00 +40°C° 0 mm 5 m/S 753 mmHg 32%
    17:00 +37°C° 0 mm 4 m/S 753 mmHg 37%
    18:00 +35°C° 0 mm 4 m/S 753 mmHg 42%
    19:00 +34°C° 0 mm 4 m/S 754 mmHg 47%
    20:00 +33°C° 0 mm 4 m/S 754 mmHg 53%
    21:00 +30°C° 0 mm 3 m/S 755 mmHg 58%
    22:00 +30°C° 0 mm 3 m/S 755 mmHg 60%
    23:00 +29°C° 0 mm 3 m/S 755 mmHg 63%

    übermorgen, 21 Juli, Samstag

    Zeit Temperatur Niederschläge Wind Luftdruck Luftfeuchtigkeit
    00:00 +28°C° 0 mm 3 m/S 755 mmHg 66%
    01:00 +28°C° 0 mm 3 m/S 755 mmHg 67%
    02:00 +28°C° 0 mm 3 m/S 755 mmHg 69%
    03:00 +27°C° 0 mm 3 m/S 754 mmHg 70%
    04:00 +27°C° 0 mm 3 m/S 754 mmHg 71%
    05:00 +27°C° 0 mm 3 m/S 754 mmHg 71%
    06:00 +27°C° 0 mm 3 m/S 754 mmHg 72%
    07:00 +29°C° 0 mm 4 m/S 755 mmHg 64%
    08:00 +32°C° 0 mm 4 m/S 755 mmHg 56%
    09:00 +35°C° 0 mm 5 m/S 755 mmHg 49%
    10:00 +36°C° 0 mm 5 m/S 755 mmHg 45%
    11:00 +37°C° 0 mm 5 m/S 755 mmHg 42%
    12:00 +39°C° 0 mm 5 m/S 754 mmHg 39%
    13:00 +39°C° 0 mm 5 m/S 754 mmHg 40%
    14:00 +39°C° 0 mm 5 m/S 753 mmHg 40%
    15:00 +39°C° 0 mm 5 m/S 752 mmHg 40%
    16:00 +37°C° 0,1 mm 5 m/S 753 mmHg 44%
    17:00 +35°C° 0,1 mm 4 m/S 753 mmHg 47%
    18:00 +34°C° 0,1 mm 4 m/S 753 mmHg 51%
    19:00 +33°C° 0 mm 4 m/S 754 mmHg 55%
    20:00 +32°C° 0 mm 4 m/S 755 mmHg 59%
    21:00 +30°C° 0 mm 4 m/S 755 mmHg 63%
    22:00 +29°C° 0 mm 4 m/S 755 mmHg 65%
    23:00 +29°C° 0 mm 4 m/S 755 mmHg 66%

    22 Juli, Sonntag

    Zeit Temperatur Niederschläge Wind Luftdruck Luftfeuchtigkeit
    00:00 +28°C° 0 mm 4 m/S 755 mmHg 68%
    01:00 +28°C° 0 mm 4 m/S 755 mmHg 69%
    02:00 +28°C° 0 mm 3 m/S 755 mmHg 71%
    03:00 +28°C° 0 mm 3 m/S 754 mmHg 72%
    04:00 +28°C° 0 mm 3 m/S 754 mmHg 72%
    05:00 +27°C° 0 mm 3 m/S 754 mmHg 72%
    06:00 +27°C° 0 mm 3 m/S 755 mmHg 73%
    07:00 +29°C° 0 mm 4 m/S 755 mmHg 66%
    08:00 +32°C° 0 mm 4 m/S 755 mmHg 59%
    09:00 +34°C° 0 mm 5 m/S 756 mmHg 52%
    10:00 +35°C° 0 mm 5 m/S 755 mmHg 48%
    11:00 +37°C° 0 mm 5 m/S 755 mmHg 44%
    12:00 +39°C° 0 mm 5 m/S 755 mmHg 39%
    13:00 +39°C° 0 mm 5 m/S 754 mmHg 39%
    14:00 +39°C° 0 mm 6 m/S 754 mmHg 39%
    15:00 +39°C° 0 mm 6 m/S 753 mmHg 39%
    16:00 +36°C° 0 mm 6 m/S 753 mmHg 43%
    17:00 +35°C° 0 mm 5 m/S 753 mmHg 46%
    18:00 +34°C° 0 mm 5 m/S 754 mmHg 49%
    19:00 +33°C° 0 mm 5 m/S 754 mmHg 53%
    20:00 +32°C° 0 mm 4 m/S 755 mmHg 56%
    21:00 +30°C° 0 mm 4 m/S 756 mmHg 60%
    22:00 +30°C° 0 mm 4 m/S 755 mmHg 62%
    23:00 +29°C° 0 mm 4 m/S 755 mmHg 64%

    23 Juli, Montag

    Zeit Temperatur Niederschläge Wind Luftdruck Luftfeuchtigkeit
    00:00 +29°C° 0 mm 3 m/S 755 mmHg 67%
    01:00 +28°C° 0,1 mm 3 m/S 755 mmHg 69%
    02:00 +27°C° 0,1 mm 3 m/S 755 mmHg 72%
    03:00 +27°C° 0,1 mm 3 m/S 754 mmHg 75%
    04:00 +26°C° 0 mm 3 m/S 755 mmHg 75%
    05:00 +26°C° 0 mm 3 m/S 755 mmHg 75%
    06:00 +26°C° 0 mm 3 m/S 755 mmHg 76%
    07:00 +29°C° 0 mm 3 m/S 755 mmHg 66%
    08:00 +32°C° 0 mm 4 m/S 756 mmHg 56%
    09:00 +35°C° 0 mm 5 m/S 756 mmHg 46%
    10:00 +36°C° 0 mm 5 m/S 755 mmHg 40%
    11:00 +39°C° 0 mm 5 m/S 755 mmHg 34%
    12:00 +40°C° 0 mm 5 m/S 754 mmHg 28%
    13:00 +40°C° 0 mm 5 m/S 754 mmHg 29%
    14:00 +39°C° 0 mm 5 m/S 753 mmHg 31%
    15:00 +39°C° 0 mm 5 m/S 753 mmHg 32%
    16:00 +37°C° 0 mm 5 m/S 753 mmHg 37%
    17:00 +36°C° 0 mm 5 m/S 754 mmHg 42%
    18:00 +34°C° 0 mm 5 m/S 754 mmHg 47%
    19:00 +34°C° 0 mm 4 m/S 755 mmHg 51%
    20:00 +33°C° 0 mm 4 m/S 756 mmHg 55%
    21:00 +32°C° 0 mm 4 m/S 757 mmHg 59%
    22:00 +32°C° 0 mm 4 m/S 757 mmHg 61%
    23:00 +30°C° 0 mm 4 m/S 756 mmHg 63%

    24 Juli, Dienstag

    Zeit Temperatur Niederschläge Wind Luftdruck Luftfeuchtigkeit
    00:00 +30°C° 0 mm 4 m/S 756 mmHg 66%
    01:00 +29°C° 0 mm 4 m/S 756 mmHg 67%
    02:00 +29°C° 0 mm 4 m/S 756 mmHg 69%
    03:00 +28°C° 0 mm 4 m/S 756 mmHg 71%
    04:00 +28°C° 0 mm 4 m/S 756 mmHg 71%
    05:00 +28°C° 0 mm 4 m/S 756 mmHg 72%
    06:00 +27°C° 0 mm 4 m/S 756 mmHg 73%
    07:00 +28°C° 0,1 mm 4 m/S 756 mmHg 70%
    08:00 +29°C° 0,1 mm 4 m/S 757 mmHg 67%
    09:00 +30°C° 0,1 mm 4 m/S 757 mmHg 64%
    10:00 +33°C° 0 mm 3 m/S 757 mmHg 55%
    11:00 +35°C° 0 mm 3 m/S 756 mmHg 46%
    12:00 +38°C° 0 mm 3 m/S 756 mmHg 37%
    13:00 +37°C° 0 mm 3 m/S 755 mmHg 38%
    14:00 +37°C° 0 mm 4 m/S 755 mmHg 39%
    15:00 +36°C° 0 mm 4 m/S 754 mmHg 40%
    16:00 +35°C° 0 mm 4 m/S 755 mmHg 45%
    17:00 +34°C° 0 mm 3 m/S 755 mmHg 49%
    18:00 +33°C° 0 mm 3 m/S 755 mmHg 53%
    19:00 +31°C° 0 mm 3 m/S 756 mmHg 56%
    20:00 +31°C° 0 mm 3 m/S 756 mmHg 58%
    21:00 +30°C° 0 mm 3 m/S 757 mmHg 61%
    22:00 +30°C° 0 mm 3 m/S 757 mmHg 62%
    23:00 +29°C° 0 mm 4 m/S 757 mmHg 64%
    Mehr zeigen